Location: Peterborough
(44.3091°N, 78.3197°W)
Time: 06:02:19
(UTC-04:00)

Vanguard 3 - Pass Details

Date: 28 February 2024
Orbit: 510 x 3234 km, 33.3° (Epoch: 24 April)

Event Time Altitude Azimuth Distance (km) Brightness Sun altitude
Rises 18:39:57 0° 217° (SW) 6,164 12.3 -8.0°
Reaches altitude 10° 18:44:03 10° 210° (SSW) 5,458 11.8 -8.7°
Maximum altitude 18:59:36 40° 149° (SSE) 4,161 10.5 -11.5°
Enters shadow 19:13:46 16° 94° (E) 5,507 10.7 -14.0°
